User: anonymous   Login
Location: Unspecified
(0.0000°N, 0.0000°E)
Time: 09:58:40
(UTC+00:00)
Language:

PLEIADES 1B - Orbit

View from above orbital plane
View from above orbital plane
View from above satellite
View from above satellite

Ground track
Ground track

The orbit data is extracted from the following two-line orbital elements,

1 39019U 12068A   14330.16158885  .00000796  00000-0  18089-3 0  2930
2 39019 098.1860 042.8400 0001398 084.0521 276.0853 14.58567919105568
Epoch (UTC): 26 November 2014 03:52:41
Eccentricity: 0.0001398
inclination: 98.1860°
perigee height: 697 km
apogee height: 699 km
right ascension of ascending node: 42.8400°
argument of perigee: 84.0521°
revolutions per day: 14.58567919
mean anomaly at epoch: 276.0853°
orbit number at epoch: 10556

The dashed part of the orbit path shows where the satellite is in the earth's shadow,  

DLR